Regional Weather Roundup
Issued by NWS

Home | Current Version | Previous Version | Graphics & Text | Print | Product List | Glossary On
Versions: 1 2 3 4 5 6 7 8 9 10 11 12 13 14 15 16 17 18 19 20 21 22 23 24 25 26 27 28 29 30 31 32 33 34 35 36 37 38 39 40 41 42 43 44 45 46 47 48 49 50
000
ASUS43 KMKX 290600
RWRWI

WISCONSIN REGIONAL WEATHER ROUNDUP
NATIONAL WEATHER SERVICE MILWAUKEE/SULLIVAN WI
1200 AM CST SAT NOV 29 2014

NOTE: "FAIR" INDICATES FEW OR NO CLOUDS BELOW 12,000 FEET WITH NO
SIGNIFICANT WEATHER AND/OR OBSTRUCTIONS TO VISIBILITY.

WIZ001-002-006>008-014>016-023>028-290700-
NORTHWEST WISCONSIN

CITY           SKY/WX    TMP DP  RH WIND       PRES   REMARKS
SUPERIOR ARPT  CLOUDY    20  15  80 CALM      29.75F
ASHLAND        CLOUDY    19  15  84 CALM      29.76F
6HR MIN TEMP:  17; 6HR MAX TEMP:  19; 6HR PCP: TRACE;

HAYWARD        CLOUDY    20  15  81 SE8       29.72F WCI  10
6HR MIN TEMP:  16; 6HR MAX TEMP:  20;

SIREN          PTCLDY    18  14  85 E3        29.72F
CUMBERLAND     PTCLDY    18  14  86 SE10      29.70F WCI   6
RICE LAKE      PTCLDY    18  15  87 E6        29.75F WCI  10
CHETEK         PTCLDY    18  16  90 CALM      29.75F
LADYSMITH      PTCLDY    21  18  86 CALM      29.77F
EAU CLAIRE     NOT AVBL
MENOMONIE      PTCLDY    22  19  89 E5        29.75F WCI  16
NEW RICHMOND   PTCLDY    19  16  88 E7        29.71F WCI   9
OSCEOLA        PTCLDY    21  17  86 E7        29.73F WCI  12
$$

WIZ003>005-009-010-017-018-290700-
NORTH CENTRAL WISCONSIN

CITY           SKY/WX    TMP DP  RH WIND       PRES   REMARKS
MANITOWISH WTR CLOUDY    16  14  92 S6        29.74F WCI   7
ARBOR VITAE    CLOUDY    17  14  88 CALM      29.76F
WOODRUFF       CLOUDY    17  14  88 CALM      29.76F
RHINELANDER    CLOUDY    14  12  92 E3        29.76F
6HR MIN TEMP:  13; 6HR MAX TEMP:  15;

EAGLE RIVER    MOCLDY    15  12  86 CALM      29.75F
LAND O LAKES   CLOUDY    16  13  90 S3        29.77F
PHILLIPS       CLOUDY    17  15  88 SE5       29.75F WCI  10
TOMAHAWK       MOCLDY    16  14  90 CALM      29.78S
MEDFORD        MOCLDY    19  16  91 SE7       29.74F WCI   9
MERRILL        MOCLDY    17  16  93 SE5       29.77F WCI  10
$$

WIZ029-030-035-036-043>047-290700-
CENTRAL WISCONSIN

CITY           SKY/WX    TMP DP  RH WIND       PRES   REMARKS
WAUSAU         CLOUDY    19  17  92 SE7       29.76F WCI  10
6HR MIN TEMP:  17; 6HR MAX TEMP:  19;

MOSINEE        CLOUDY    19  19 100 SE7       29.79F WCI  10
MARSHFIELD     CLOUDY    22  18  85 SE6       29.76F WCI  14
6HR MIN TEMP:  21; 6HR MAX TEMP:  22; 6HR PCP: TRACE;

STEVENS POINT  CLOUDY    20  18  92 E5        29.81F WCI  14
WAUPACA        CLOUDY    26  22  86 CALM      29.84F FOG
WAUTOMA        CLOUDY    25  25 100 NE3       29.83F FOG
WISC RAPIDS    CLOUDY    24  20  84 E6        29.79F WCI  17
6HR MIN TEMP:  22; 6HR MAX TEMP:  24; 6HR PCP:  0.01;

CAMP DOUGLAS   NOT AVBL
$$

WIZ011>013-019>022-031-037>040-048>050-290700-
NORTHEAST WISCONSIN

CITY           SKY/WX    TMP DP  RH WIND       PRES   REMARKS
ANTIGO         CLOUDY    17  16  95 S6        29.78F FOG     WCI   8
SHAWANO        CLOUDY    23  20  89 CALM      29.85F
OCONTO         CLOUDY    21  21  98 CALM      29.85F
STURGEON BAY   CLOUDY    28  25  86 S6        29.85F WCI  22
6HR MIN TEMP:  23; 6HR MAX TEMP:  28;

GREEN BAY      CLOUDY    24  22  91 CALM      29.84F FOG
6HR MIN TEMP:  23; 6HR MAX TEMP:  26; 6HR PCP:  0.01;

MANITOWOC      NOT AVBL
APPLETON       CLOUDY    28  25  86 SE6       29.84F WCI  22
CLINTONVILLE   CLOUDY    23  21  93 CALM      29.84F
OSHKOSH        CLOUDY    30  27  88 MISG      29.82F FOG
6HR MIN TEMP:  26; 6HR MAX TEMP:  30; 6HR PCP:  0.01;

$$

WIZ032>034-041-042-053>061-290700-
SOUTHWEST WISCONSIN

CITY           SKY/WX    TMP DP  RH WIND       PRES   REMARKS
LA CROSSE      PTCLDY    27  21  78 E7        29.75F WCI  19
6HR MIN TEMP:  25; 6HR MAX TEMP:  28;

SPARTA         PTCLDY    23  20  89 E3        29.78F
VIROQUA        PTCLDY    24  24 100 SE10      29.72F WCI  13
BOSCOBEL       CLEAR     21  19  92 CALM      29.77F FOG
6HR MIN TEMP:  21; 6HR MAX TEMP:  27;

PRAIRIE DU CHI PTCLDY    27  23  86 CALM      29.76F
PLATTEVILLE    CLEAR     26  25  94 E9        29.77F WCI  17
$$

WIZ056-057-062-063-064-067-068-290700-
SOUTH CENTRAL WISCONSIN

CITY           SKY/WX    TMP DP  RH WIND       PRES   REMARKS
REEDSBURG      CLOUDY    24  23  95 CALM      29.78F
BARABOO/DELLS  CLOUDY    24  22  94 E6        29.78F FOG     WCI  17
LONE ROCK      NOT AVBL
MINERAL POINT  CLEAR     30  28  93 SE10      29.77F FOG     WCI  21
MADISON        MOCLDY    30  27  88 S6        29.80F FOG     WCI  24
6HR MIN TEMP:  26; 6HR MAX TEMP:  30;

MIDDLETON      MOCLDY    29  28  94 E5        29.80F WCI  24
WATERTOWN      CLOUDY    29  28  99 SE5       29.82F FOG     WCI  24
MONROE         PTCLDY    30  30 100 S8        29.79F WCI  23
JANESVILLE     PTCLDY    34  32  93 S7        29.83F WCI  28
$$

WIZ051-052-058>065-066-070>072-290700-
SOUTHEAST WISCONSIN

CITY           SKY/WX    TMP DP  RH WIND       PRES   REMARKS
MILWAUKEE      CLOUDY    33  28  81 S7        29.85F WCI  27
6HR MIN TEMP:  30; 6HR MAX TEMP:  33; 6HR PCP:  0.01;

WAUKESHA       CLOUDY    30  28  93 SE7       29.85F FOG     WCI  23
MILWAUKEE/TIMM CLOUDY    32  28  86 SE5       29.86F WCI  27
RACINE         CLOUDY    35  29  78 S10       29.88F WCI  27
6HR MIN TEMP:  31; 6HR MAX TEMP:  35; 6HR PCP: TRACE;

BURLINGTON     CLOUDY    29  27  93 SE5       29.85F FOG     WCI  24
KENOSHA        CLOUDY    33  29  85 S9        29.86F WCI  25
6HR MIN TEMP:  30; 6HR MAX TEMP:  33; 6HR PCP: TRACE;

FOND DU LAC    CLOUDY    31  27  85 S8        29.82F WCI  23
6HR MIN TEMP:  27; 6HR MAX TEMP:  31; 6HR PCP:  0.03;

SHEBOYGAN      FRZ RAIN  32  29  88 S7        29.85F FOG     WCI  26
6HR MIN TEMP:  28; 6HR MAX TEMP:  32; 6HR PCP:  0.04;

WEST BEND      CLOUDY    30  28  93 CALM      29.85F FOG
JUNEAU         CLOUDY    28  27  94 SE7       29.83F FOG     WCI  21
$$

LSZ147-162-290700-
LAKE SUPERIOR

STATION/POSITION TIME  TEMP    WIND        PRES    WAVE
                       AIR SEA DIR/SP/G            HT/PER
                 (UTC) (F)     (DEG/KT/KT) (MB)    (FT/S)
DEVILS ISLAND    0500   21     190/  6/  8 1010.4F
PORT WING        0500   18     100/  2/  4 1008.8F
SAXON HARBOR     0540   20        CALM     1008.1F
$$

LMZ867-665-643>646-290700-
LAKE MICHIGAN

STATION/POSITION TIME  TEMP    WIND        PRES    WAVE
                       AIR SEA DIR/SP/G            HT/PER
                 (UTC) (F)     (DEG/KT/KT) (MB)    (FT/S)
CHAMBERS ISLAND  0500   28     160/  2/  5 1012.2F
N MID LAKE BUOY  0450   31 42  170/ 21/ 25 1013.2F   6/ 6
NORTHPORT PIER   0523   31     150/ 12/ 19 1011.5F
SISTER BAY       0428          190/  7/  8   N/A
ALGOMA LAKESHORE 0513          240/ 11/ 13   N/A
KEWAUNEE LAKESHO 0500   30     200/  1/  5 1011.3F
SHEBOYGAN LAKESH 0500   33 35  200/  9/ 10 1012.9F
PORT WASHINGTON  0500   34     190/  7/ 12 1012.5F
MILWAUKEE LAKESH 0500   34     180/ 10/ 12   N/A
S MID LAKE BUOY  0450   37 42  180/ 19/ 23 1013.5F   6/ 7
KENOSHA   LAKESH 0500   35     180/ 10/ 12 1011.9F
$$

TC  - TEMPERATURE IN CELSIUS
VSB - VISIBILITY IN STATUTE MILES
WCI - WIND CHILL INDEX
HX  - HEAT INDEX




USA.gov is the U.S. government's official web portal to all federal, state and local government web resources and services.